Regional Weather Roundup
Issued by NWS Grand Forks, ND

Home | Current Version | Previous Version | Text Only | Print | Product List | Glossary On
Versions: 1 2 3 4 5 6 7 8 9 10 11 12 13 14 15 16 17 18 19 20 21 22 23 24 25 26 27 28 29 30 31 32 33 34 35 36 37 38 39 40 41 42 43 44 45 46 47 48 49 50
000
ASUS43 KFGF 230631
RWRFGF
PRAIRIE TO PINES  WEATHER ROUNDUP
NATIONAL WEATHER SERVICE EASTERN NORTH DAKOTA/GRAND FORKS ND
100 AM CDT WED APR 23 2014

 **SATELLITE DATA USED TO AUGMENT SKY COVER AT AUTOMATED STATIONS**
 *****  WEATHER ACROSS EASTERN NORTH DAKOTA  *****

CITY           SKY/WX    TMP DP  RH WIND       PRES   REMARKS
GRAND FORKS    FAIR      47  27  45 SE14      29.97S
6HR MIN TEMP:  47; 6HR MAX TEMP:  61;

GRAND FRKS AFB FAIR      44  28  53 SE10      29.96F
GRAND FRKS NWS   N/A     45 N/A N/A SE13        N/A
DEVILS LAKE    FAIR      45  30  57 SE16      29.89F
6HR MIN TEMP:  45; 6HR MAX TEMP:  57;

FARGO          FAIR      49  31  49 SE16      29.95F
WAHPETON ARPT  FAIR      45  32  61 SE14      29.97S
$$

 ***** WEATHER ACROSS CENTRAL AND WESTERN NORTH DAKOTA  *****

CITY           SKY/WX    TMP DP  RH WIND       PRES   REMARKS
BISMARCK       MOCLDY    57  33  40 SE21G30   29.71F
6HR MIN TEMP:  53; 6HR MAX TEMP:  66;

MINOT          FAIR      48  33  56 E17       29.76F
6HR MIN TEMP:  48; 6HR MAX TEMP:  64;

JAMESTOWN      FAIR      48  34  58 SE21      29.86F
6HR MIN TEMP:  48; 6HR MAX TEMP:  61;

MINOT AFB      FAIR      47  34  60 SE21G28   29.76F
GARRISON         N/A     51  34  52 E24G32    29.70F
WILLISTON      CLOUDY    54  32  43 E16G23    29.59F
6HR MIN TEMP:  54; 6HR MAX TEMP:  70;

DICKINSON      CLOUDY    53  31  42 SE22G30   29.56F
6HR MIN TEMP:  52; 6HR MAX TEMP:  66;

HETTINGER      CLOUDY    53  31  42 E18G28    29.57S
6HR MIN TEMP:  53; 6HR MAX TEMP:  65;

$$

 *****  OTHER AIRPORT OBSERVATIONS IN OUR AREA  *****

CITY           SKY/WX    TMP DP  RH WIND       PRES   REMARKS
WALHALLA       FAIR      39  32  75 E6        29.98F
GRAFTON AIRPOR FAIR      39  32  75 SE10      29.98S
VALLEY CITY AR CLOUDY    46  32  57 SE14G20   29.91S
CANDO          FAIR      43  32  65 SE18      29.89F
CAVALIER APRT  FAIR      39  32  75 E8        29.98F
GWINNER        CLOUDY    52  36  54 SE16      29.92S
SHEYENNE NWR     N/A     47  33  58 SE9       29.95S
ROLLA          FAIR      41  32  70 SE13      29.90F
 ***** THE ABOVE OBSERVATIONS ARE NON NWS ARE NOT QUALITY
       CONTROLLED AND MAY MIS-REPORT RAIN FOR SNOW...
$$

  *****  WEATHER ACROSS NORTHERN MINNESOTA  *****

CITY           SKY/WX    TMP DP  RH WIND       PRES   REMARKS
FLAG ISLAND    FAIR      30  21  69 CALM      30.07S
WARROAD        FAIR      32  25  74 E6        30.07S
ROSEAU         FAIR      37  25  60 E9        30.05S
HALLOCK        CLOUDY    41  28  60 E12       30.00S
THF RVR FALLS  FAIR      39  23  52 E9        30.02F
6HR MIN TEMP:  39; 6HR MAX TEMP:  55;

BAUDETTE       FAIR      36  22  56 SE5       30.08R
6HR MIN TEMP:  35; 6HR MAX TEMP:  51;

WASKISH        FAIR      37  23  56 E6        30.07S
CROOKSTON      FAIR      45  27  49 SE13      30.00S
$$
  *****  WEATHER ACROSS CENTRAL AND WEST MINNESOTA  *****

CITY           SKY/WX    TMP DP  RH WIND       PRES   REMARKS
FOSSTON        FAIR      41  23  48 E8        30.02S
BEMIDJI        FAIR      35  22  60 SE6       30.05S
PARK RAPIDS    FAIR      40  24  53 E6        30.03S
6HR MIN TEMP:  40; 6HR MAX TEMP:  56;

ELBOW LAKE     MOCLDY    46  31  54 SE10      29.99S
6HR MIN TEMP:  46; 6HR MAX TEMP:  58;

WADENA         FAIR      39  27  60 E7        30.02F
DETROIT LAKES  FAIR      45  27  49 SE9       30.01S
MOORHEAD       FAIR      48  30  49 SE10      29.98S
FERGUS FALLS   FAIR      48  23  37 SE14G21   29.96S
MORRIS MN      FAIR      48  34  57 SE15      29.98S
STAPLES        FAIR      37  25  60 CALM      30.04F
$$
  *****  WEATHER ELSEWHERE ACROSS MINNESOTA  *****

CITY           SKY/WX    TMP DP  RH WIND       PRES   REMARKS
DULUTH         FAIR      35  20  54 E6        30.10R
6HR MIN TEMP:  31; 6HR MAX TEMP:  51;

INTRNTL FALLS  FAIR      28  23  81 E3        30.09R
6HR MIN TEMP:  26; 6HR MAX TEMP:  50;

ELY            FAIR      25  21  86 CALM      30.11S
CLOQUET        FAIR      28  21  74 CALM      30.10R
WHEATON        FAIR      52  36  54 SE15      29.98S
BRAINERD       FAIR      37  25  61 CALM      30.07S
6HR MIN TEMP:  36; 6HR MAX TEMP:  60;

HIBBING        FAIR      28  22  78 CALM      30.09R
6HR MIN TEMP:  27; 6HR MAX TEMP:  53;

ALEXANDRIA     FAIR      45  27  49 SE15      30.02F
6HR MIN TEMP:  45; 6HR MAX TEMP:  57;

SAINT CLOUD    FAIR      45  23  42 E6        30.06S
6HR MIN TEMP:  45; 6HR MAX TEMP:  58;

MINNEAPOLIS    FAIR      46  24  42 E10       30.08S
6HR MIN TEMP:  45; 6HR MAX TEMP:  55;

$$

  *****  WEATHER ACROSS SOUTH DAKOTA  *****

CITY           SKY/WX    TMP DP  RH WIND       PRES   REMARKS
SIOUX FALLS    FAIR      55  34  45 SE17      29.93S
6HR MIN TEMP:  54; 6HR MAX TEMP:  63;

BROOKINGS      NOT AVBL
WATERTOWN      CLOUDY    52  34  50 SE16G26   29.90F
6HR MIN TEMP:  52; 6HR MAX TEMP:  62;

HURON          CLOUDY    58  33  39 SE16G32   29.83S
6HR MIN TEMP:  58; 6HR MAX TEMP:  63;

SISSETON         N/A     49  37  63 S13       29.94S
ABERDEEN       LGT RAIN  51  39  63 SE16      29.84F
6HR MIN TEMP:  51; 6HR MAX TEMP:  63; 6HR PCP: TRACE;

MITCHELL       MOCLDY    57  35  43 SE22      29.85F
PIERRE         NOT AVBL
MOBRIDGE       CLOUDY    57  32  38 SE32G48   29.65F
RAPID CITY     CLOUDY    58  45  62 S13       29.55F
6HR MIN TEMP:  58; 6HR MAX TEMP:  70;

$$

  *****  SOME WEATHER IN NEARBY STATES *****

CITY           SKY/WX    TMP DP  RH WIND       PRES   REMARKS
GLASGOW MT     PTCLDY    57  32  38 E24G31    29.41F
6HR MIN TEMP:  57; 6HR MAX TEMP:  75;

GREAT FALLS MT LGT RAIN  43  41  93 SW8       29.56R
6HR MIN TEMP:  42; 6HR MAX TEMP:  48; 6HR PCP:  0.58;

CHEYENNE WY    CLOUDY    53  35  50 SW3       29.67F
6HR MIN TEMP:  51; 6HR MAX TEMP:  65; 6HR PCP: TRACE;

SCOTTSBLUFF NE PTCLDY    57  44  62 E14       29.57F
6HR MIN TEMP:  57; 6HR MAX TEMP:  76; 6HR PCP: TRACE;

OMAHA NE       FAIR      58  33  39 SE16      29.96F
6HR MIN TEMP:  57; 6HR MAX TEMP:  67;

DES MOINES IA  MOCLDY    55  32  41 E9        30.05S
6HR MIN TEMP:  55; 6HR MAX TEMP:  65;

DAVENPORT IA   FAIR      42  29  59 NE10      30.07S
6HR MIN TEMP:  40; 6HR MAX TEMP:  59;

CHICAGO IL     FAIR      39  26  59 NE6       30.10R
6HR MIN TEMP:  36; 6HR MAX TEMP:  47;

EAU CLAIRE WI  FAIR      34  25  69 E3        30.12R
6HR MIN TEMP:  31; 6HR MAX TEMP:  54;

LA CROSSE WI   FAIR      43  28  55 SE5       30.12R
6HR MIN TEMP:  40; 6HR MAX TEMP:  56;

$$

  *****  SOME NATIONAL WEATHER *****

CITY           SKY/WX    TMP DP  RH WIND       PRES   REMARKS
LA GUARDIA NY  FAIR      61  45  55 W12       29.49F
6HR MIN TEMP:  61; 6HR MAX TEMP:  64; 6HR PCP: TRACE;

RALEIGH NC     FAIR      61  55  81 W5        29.71R
6HR MIN TEMP:  61; 6HR MAX TEMP:  72;

ATLANTA GA     FAIR      61  59  93 NW7       29.87F
6HR MIN TEMP:  60; 6HR MAX TEMP:  65;

NEW ORLEANS LA FAIR      67  64  90 CALM      29.93S
6HR MIN TEMP:  65; 6HR MAX TEMP:  75;

OKLAHOMA CITY  FAIR      58  41  53 SE5       29.95S
6HR MIN TEMP:  56; 6HR MAX TEMP:  79;

ALBUQUERQUE NM MOCLDY    67  30  25 S12       29.86F
6HR MIN TEMP:  67; 6HR MAX TEMP:  78;

SALT LAKE CITY CLOUDY    40  40 100 S8        29.87F
6HR MIN TEMP:  39; 6HR MAX TEMP:  60; 6HR PCP:  0.22;

LOS ANGELES CA CLEAR     59  49  69 W5        29.93S
6HR MIN TEMP:  59; 6HR MAX TEMP:  64;

BOISE ID       PTCLDY    40  32  73 NW5       29.92R



USA.gov is the U.S. government's official web portal to all federal, state and local government web resources and services.